351  
SXUS52 KJAX 272112  
OSOJAX  
OTHER SURFACE OBSERVATIONS  
NATIONAL WEATHER SERVICE JACKSONVILLE FL  
500 PM EDT WED OCT 27 2021  
 
FLZ020>025-030>033-035>038-040-272200-   
..FLORIDA
 
 
 
CITY SKY/WX TMP DP RH WIND PRES REMARKS  
CECIL FIELD SUNNY 79 52 38 VRB5 29.82F  
HERLONG FIELD NOT AVBL  
FERNANDINA BCH NOT AVBL  
LAKE CITY FAIR 73 52 46 SW5 29.84R  
JUNIPER SPGS NOT AVBL  
BUNNELL NOT AVBL  
KEYSTONE HGTS SUNNY 75 50 41 CALM 29.83R  

 
 
GAZ132>136-149>154-162>166-272200-   
..GEORGIA
 
 
 
CITY SKY/WX TMP DP RH WIND PRES REMARKS  
JESUP FAIR 73 52 46 CALM 29.87S  
HOMERVILLE FAIR 76 53 45 CALM 29.84S  
SWAINSBORO FAIR 72 36 26 CALM 29.86F  
CORDELE FAIR 74 46 36 SE3 29.84F  
EASTMAN FAIR 72 48 41 CALM 29.84F  

 
 
PLEASE NOTE: THESE OBSERVATIONS ARE NOT QUALITY CONTROLLED AND MAY  
NOT BE AVAILABLE AT ALL TIMES.  

 
 
 
CLICK HERE TO GO TO PREVIOUS BULLETINS.

The Nexlab FL Page
The Nexlab GA Page Main Text Page